Location: Notre Dame Regional High School Observatory
(37.3056°N, 89.6097°W)
Time: 20:39:41
(UTC-05:00)

Okean-O - Visible Passes

Search period start: 22 July 2014 00:00
Search period end: 01 August 2014 00:00
Orbit: 643 x 645 km, 98.0° (Epoch: 22 July)

Date Brightness Start Highest point End Pass type
(mag) Time Alt. Az. Time Alt. Az. Time Alt. Az.
22 Jul 2.8 04:16:39 10° NNE 04:21:05 70° ESE 04:24:30 17° S visible
23 Jul 5.4 03:07:59 10° E 03:08:49 10° E 03:09:39 10° ESE visible
23 Jul 2.7 04:41:22 10° N 04:45:45 61° WNW 04:49:26 14° SSW visible
24 Jul 4.8 03:30:26 10° NE 03:33:44 20° E 03:36:41 11° SE visible
24 Jul 3.5 05:06:22 10° N 05:10:20 32° WNW 05:14:16 10° SW visible
25 Jul 3.9 03:54:25 10° NNE 03:58:34 38° E 04:01:37 16° SSE visible
26 Jul 2.8 04:18:51 10° NNE 04:23:18 74° ESE 04:26:32 18° S visible
27 Jul 5.4 03:09:44 10° ENE 03:11:03 11° E 03:12:22 10° ESE visible
27 Jul 2.8 04:43:35 10° N 04:47:57 58° WNW 04:51:27 15° SSW visible
28 Jul 4.7 03:32:33 10° NE 03:35:57 21° E 03:38:43 13° SE visible
28 Jul 3.6 05:08:37 10° N 05:12:32 31° WNW 05:16:23 10° SW visible
29 Jul 3.8 03:56:35 10° NNE 04:00:46 40° E 04:03:38 18° SSE visible
30 Jul 2.7 04:21:02 10° NNE 04:25:30 78° ESE 04:28:33 20° S visible
31 Jul 5.3 03:11:38 10° ENE 03:13:17 12° E 03:14:55 10° ESE visible
31 Jul 2.8 04:45:48 10° N 04:50:09 55° WNW 04:53:28 17° SSW visible
